Volver al catálogo

NANOFF A

ActivoCienciaSSO
NORAD 58810·PAYLOAD·🇩🇪 Germany

Lanzado Dec 1, 2023 desde Vandenberg Space Force Base

Loading…

Próximos Pases (próximas 24 horas)

TLE

ActualizadoSource: CelesTrak SupGP

Época: Sep 14, 2026, 12:29 UTC

1 58810C 23185T   26257.52013889  .00002639  00000+0  15061-3 0  2571
2 58810  97.5175 323.6985 0009894   9.6571 101.8909 15.12779653    17

Sigue NANOFF A en tiempo real con AllMySat

Download on the App Store